Regional Weather Roundup
Issued by NWS

Home | Current Version | Previous Version | Graphics & Text | Print | Product List | Glossary On
Versions: 1 2 3 4 5 6 7 8 9 10 11 12 13 14 15 16 17 18 19 20 21 22 23 24 25 26 27 28 29 30 31 32 33 34 35 36 37 38 39 40 41 42 43 44 45 46 47 48 49 50
000
ASUS45 KTFX 050319
RWRMT
MONTANA HOURLY WEATHER ROUNDUP
NATIONAL WEATHER SERVICE GREAT FALLS MT
819 PM MST WED MAR 4 2015

NOTE: "FAIR" INDICATES FEW OR NO CLOUDS BELOW 12000 FEET WITH NO
SIGNIFICANT WEATHER AND/OR OBSTRUCTIONS TO VISIBILITY.

* THESE STATIONS ARE NOT UNDER NWS QUALITY CONTROL. THEY DO NOT
   REPORT WEATHER SUCH AS PRECIPITATION OR FOG.

MTZ001>007-043-050400-
WEST OF THE DIVIDE
CITY           SKY/WX    TMP DP  RH WIND       PRES   REMARKS
KALISPELL      MOCLDY    32  16  52 S6        30.18R WCI  26
MISSOULA       PTCLDY    30  16  56 NW6       30.21R WCI  24
BUTTE          PTCLDY    25  10  53 NW7       30.10R WCI  17
MULLAN PASS    CLEAR     19   9  65 NW7       30.14R WCI  10
* ANACONDA     PTCLDY    25   7  46 N/A        N/A
* ESSEX        N/A       24  13  63 N/A        N/A
* EUREKA APT   PTCLDY    30   9  41 E8        30.18S WCI  22
* HAMILTON APT PTCLDY    30  16  56 E2        30.20R
* LIBBY APT    PTCLDY    30  10  43 S5        30.21R WCI  25
* LINCOLN      N/A       29   8  41 SW5G16     N/A   WCI  24
* LOOKOUT PASS N/A       29   9  43 NE2        N/A
* POLSON       N/A       28  11  49 SE1        N/A
* RONAN APT    PTCLDY    32  18  56 N/A        N/A
* SEELEY LAKE  N/A       23   6  48 N1         N/A
* THOMP F APT  CLEAR     19   3  49 NE1G9      N/A
$$

MTZ008-052>055-050400-
SOUTHWEST MONTANA
CITY           SKY/WX    TMP DP  RH WIND       PRES   REMARKS
BOZEMAN        FAIR      21   9  60 S9        30.10S WCI  11
DILLON         PTCLDY    27   9  46 S10       30.10R WCI  18
* W YELLOWSTON PTCLDY    16   2  54 SW4G12     N/A
* THREE FORKS  CLEAR     25   7  46 N/A        N/A
* BOULDER HILL N/A       26   1  34 SE3        N/A
* MONIDA PASS  N/A       16   6  64 SE11G17    N/A   WCI   3
* RAYNOLDS PAS N/A       14  -2  49 SE4        N/A
* WHITEHALL    N/A       34   4  28 W11G16     N/A   WCI  26
* WISE RIVER   N/A       29   3  33 W11G18     N/A   WCI  19
$$

MTZ009>010-012-014-046-048-049-054-050400-
EAST SLOPES AND CENTRAL MONTANA
CITY           SKY/WX    TMP DP  RH WIND       PRES   REMARKS
CUT BANK       PTCLDY    28  10  47 W22       29.95S WCI  14
GREAT FALLS    CLEAR     28  12  51 SW14      30.00R WCI  17
HELENA         PTCLDY    34   9  35 SW7       30.10R WCI  28
MALMSTROM AFB  CLEAR     28  12  51 SW15      30.02R WCI  16
* CONRAD       PTCLDY    19   9  65 CALM       N/A
* DEARBORN     N/A       34  10  37 E1         N/A
* EAST GLACIER N/A       27   8  44 W22G34     N/A   WCI  13
* MONARCH      N/A       23   1  38 SW14G20    N/A   WCI  10
* PENDROY      N/A       28  13  53 NW17G23    N/A   WCI  16
* ROGERS PASS  N/A       25   8  48 SE12G24    N/A   WCI  14
* SWEET GRASS  N/A       26  14  60 SW14G20    N/A   WCI  14
* WHITE SULPH  N/A       25   7  46 S10G16     N/A   WCI  15
$$

MTZ011-013-016-021-035-040-045-047-050-051-050400-
NORTH CENTRAL MONTANA
CITY           SKY/WX    TMP DP  RH WIND       PRES   REMARKS
HAVRE          CLEAR     25  10  53 CALM      29.99F
LEWISTOWN      CLEAR     18   3  52 S8        30.01S WCI   8
* N BAR RANCH  CLEAR     14   0  53 W3        30.02R
* CHINOOK      CLEAR     18   3  52 E8        30.02F WCI   8
* FORT BENTON  CLEAR     30  12  47 SW6       30.02S WCI  24
* MALTA APT    CLEAR     18   0  45 N/A        N/A
* CHESTER      N/A       30   8  39 W9G15      N/A   WCI  22
* DENTON       N/A       20   8  59 SW9        N/A   WCI  10
* GEYSER       N/A       28   9  45 SW22G27    N/A   WCI  14
* JUDITH GAP   N/A       22   4  46 SE6        N/A   WCI  14
* LOMA         N/A       32  13  45 SW6        N/A   WCI  26
$$

MTZ017>020-022>027-061-062-050400-
NORTHEAST MONTANA
CITY           SKY/WX    TMP DP  RH WIND       PRES   REMARKS
GLASGOW        CLEAR     10   0  64 E13       30.12F WCI  -5
GLENDIVE       CLEAR      3  -9  57 CALM      30.17F
JORDAN         CLEAR     14   1  56 CALM      30.11F
SIDNEY         CLEAR      1  -8  65 CALM      30.24F
WOLF POINT     PTCLDY     9   0  66 CALM      30.18F
* BEAVER HILL  N/A        4  -6  63 SE8        N/A   WCI  -9
* CIRCLE       N/A       11   1  64 N/A        N/A
* LINDSAY DVD  N/A        6  -5  60 S2         N/A
* NAVAJO       N/A        1  -7  69 S8         N/A   WCI -13
* PLENTYWOOD A CLEAR     -2 -11  65 E7        30.16F WCI -15
* POPLAR APT   CLEAR      9  -6  50 E6        30.19F WCI  -1
* SACO         N/A       12   0  58 E8         N/A
* SCOBEY APT   CLEAR      7  -9  47 N/A        N/A
$$

MTZ028>042-056>058-050400-
SOUTHCENTRAL AND SOUTHEAST MONTANA
CITY           SKY/WX    TMP DP  RH WIND       PRES   REMARKS
BAKER          CLEAR      7  -2  66 S9        30.17S WCI  -6
BILLINGS       CLEAR     23   7  50 SW18      30.06S WCI   9
LIVINGSTON     PTCLDY    28   7  41 W15       30.04S WCI  16
MILES CITY     CLEAR     16  -4  40 SE7       30.16S WCI   6
* BIG TIMBER A PTCLDY    30   3  31 W21G31    30.01F WCI  17
* FORSYTH APT  CLEAR     16   1  51 SE5       30.14F WCI   8
* LAUREL APT   CLEAR     23   1  38 SW10G18    N/A   WCI  13
* ROUNDUP APT  CLEAR     25   1  35 N/A        N/A
* ALZADA       N/A        4  -6  63 E4         N/A
* HYSHAM       N/A       19   2  47 SW2G12     N/A
* REED POINT   N/A       21   3  45 N/A        N/A
* ROSCOE HILL  N/A       17  -3  41 SE9        N/A   WCI   6
$$

REGIONAL REPORTS...DAKOTAS
CITY           SKY/WX    TMP DP  RH WIND       PRES   REMARKS
WILLISTON      PTCLDY   N/A N/A N/A N/A       30.23F
DICKINSON      CLEAR      0  -9  65 S6        30.18F WCI -12
BEACH          CLEAR      0  -4  83 S5        30.17F WCI -11
CROSBY         CLEAR     -9 -17  67 S7        30.23F WCI -24
TIOGA          CLEAR    -13 -20  70 CALM      30.23F
WATFORD CITY   CLEAR      0  -8  68 SE9       30.21F WCI -15
BISMARCK       CLEAR     -4  -9  79 E5        30.34F WCI -15
GRAND FORKS    PTCLDY    -9 -15  74 W6        30.39R WCI -23
FARGO          CLEAR     -2 -11  65 W8        30.40S WCI -17
BUFFALO SD     CLEAR      7  -6  55 SW6       30.12S WCI  -4
RAPID CITY     PTCLDY     3  -4  72 CALM      30.23R
$$

REGIONAL REPORTS...WYOMING/IDAHO/WASHINGTON
CITY           SKY/WX    TMP DP  RH WIND       PRES   REMARKS
GILLETTE       CLEAR      1  -2  87 S8        30.12S WCI -13
SHERIDAN       PTCLDY     3  -6  66 CALM      30.11F
CODY           CLEAR     16   7  67 SE10      30.07F WCI   4
YELLOWSTONE LA PTCLDY     9  -2  61 CALM      30.14R
SALMON         PTCLDY    27   9  46 SE3       30.20R
MULLAN PASS    CLEAR     19   9  65 NW7       30.14S WCI  10
SAND POINT     PTCLDY    32  18  56 CALM      30.23R
SPOKANE        FAIR      39  18  43 S8        30.23R WCI  33
$$

REGIONAL REPORTS...ALBERTA
CITY           SKY/WX    TMP DP  RH WIND       PRES   REMARKS
CALGARY        N/A       27  12  53 VRB2      29.90R
LETHBRIDGE     PTCLDY    34  12  40 W22G30    29.92R WCI  22
MEDICINE HAT   FAIR      18  10  71 SW3       29.95S
EDMONTON       FAIR      10   1  67 S7        29.90S WCI  -1
WATERTON GATE  N/A       30  10  43 SW29G40    N/A   WCI  15
CARDSTON       N/A       32  16  52 W14G21     N/A   WCI  22
MILK RIVER     N/A       25  16  69 NW6        N/A   WCI  18
$$

REGIONAL REPORTS...SASKATCHEWAN
CITY           SKY/WX    TMP DP  RH WIND       PRES   REMARKS
SWIFT CURRENT  CLEAR      1  -6  72 S10       29.99F WCI -15
REGINA         FAIR     -11 -18  70 SE13      30.17F WCI -32
VAL MARIE      N/A       12   1  61 S10        N/A   WCI  -1
ASSINIBOIA     N/A       -2  -9  72 SE9        N/A   WCI -18
CORONACH       N/A        1  -6  72 SE6        N/A   WCI -11

$$



USA.gov is the U.S. government's official web portal to all federal, state and local government web resources and services.